Location: Unspecified
(47.6567°N, 0.0000°E)
Time: 15:13:00
(UTC+00:00)

Tiangong 2 - Visible Passes

Search period start: 21 May 2019 00:00
Search period end: 31 May 2019 00:00
Orbit: 379 x 387 km, 42.8° (Epoch: 21 May)

Date Brightness Start Highest point End Pass type
(mag) Time Alt. Az. Time Alt. Az. Time Alt. Az.
21 May 2.0 21:33:41 10° WSW 21:36:04 29° S 21:36:04 29° S visible
22 May 2.2 20:33:57 10° SW 20:36:37 26° SSE 20:39:08 11° ESE visible
22 May 2.9 22:10:04 10° WSW 22:11:20 20° SW 22:11:20 20° SW visible
23 May 1.8 21:10:09 10° WSW 21:13:01 33° S 21:14:10 24° SE visible
24 May 2.2 21:46:40 10° WSW 21:49:04 28° SSW 21:49:04 28° SSW visible
25 May 1.9 20:46:40 10° WSW 20:49:31 32° S 20:51:42 15° SE visible
25 May 3.7 22:23:32 10° WSW 22:23:52 12° WSW 22:23:52 12° WSW visible
26 May 2.4 21:23:18 10° WSW 21:25:53 23° SSW 21:26:26 22° S visible
27 May 2.2 20:23:13 10° WSW 20:25:59 29° S 20:28:46 10° SE visible
27 May 3.6 22:00:38 10° SW 22:01:08 11° SW 22:01:08 11° SW visible
28 May 2.9 21:00:03 10° WSW 21:02:17 18° SSW 21:03:40 14° SSE visible
30 May 3.4 20:37:06 10° SW 20:38:37 13° SSW 20:40:07 10° S visible
